Погода в Злихе

Погода в Злихе : погода сейчас, прогноз погоды и архив. Всё, что Вы хотите узнать о погоде в Злихе!

Поиск расширенной информации на нашем сайте:

Другие новости

Новости СМИ2

Главная страница сайта

Новости сайта

02.10.2013

Напоминаем, что на нашем новом сайте вы можете получить высокодетализированные прогнозы погоды по пунктам России, СНГ и мира (включающие важные для авиации метеовеличины, такие как направление и скорость ветра, видимость, явления погоды, количество и форма облачности, нижняя и верхняя граница облачности), а также ознакомиться с разнообразными материалами по авиационной метеорологии и подборкой полезных ссылок на эту тему.

Сайт Метеоцентр.Азия посвящён разработке технологий оптимизации авиаметеорологического обслуживания, включая проектирование и перспективное создание нескольких автоматизированных авиаметеорологических систем:
- система выпуска высокодетальных прогностических карт явлений погоды для нижнего воздушного пространства по России и ближнему зарубежью;
- система верификации прогнозов TAF (выпускаемых синоптиками официальных АМСГ РФ и ближнего зарубежья) и AUTOTAF (выпускаемых сайтом Метеоцентр.Азия) - выявление ошибок, онлайн-сопоставление с фактической погодой METAR, автоматическое внесение коррективов в прогнозы при резком отклонении фактической погоды от прогноза, подсчёт оправдываемости прогнозов по элементам и в целом;
- система обработки, анализа и отображения авиаметеорологической информации для применения провайдерами метеорологической информации.

Рекомендуем: Новостной блог

Погода в Злихе - сегодня

Время (UTC), дата Ветер
(°,м/с) 
Видим.   Явления Облачность Т
(°С)
Тd
(°С)
f(%) Тe
(°С)
Pmin
(гПа)
dP
(гПа)
Po
(мм)
O2
(г/м3)
Тmin Tmax R s Состояние
почвы
09 23.04.17 270 (З) 10  20000 м    3/3 600 м 
[Cu med, cong]
+23.9 +6.5 33 +24  1021.4  -0.1  754  278           
12 23.04.17 270 (З) 20000 м    ясно 
+23.8 +5.1 30 +24  1021  -0.5  754  279           
15 23.04.17 290 (З) н/о    3/0 средняя 
[Ac As]
+18.6 +3.2 36 +19  1021.9  0.6  754  284    +25.3       
18 23.04.17 тихо ()   н/о    ясно 
+11.9 +4.1 59 +12  1023.3  755  291    +25.3       
21 23.04.17 тихо ()   н/о    ясно 
+11.1 +4.6 64 +11  1024.3  0.9  756  292           
00 24.04.17 тихо ()   н/о    ясно 
+10 +4.5 69 +10  1023.5  -1  755  293           
03 24.04.17 070 (В) 20000 м    4/0 средняя 
[Ac As]
+12.6 +1.3 46 +12  1023.3  -0.8  755  291           
06 24.04.17 070 (В) 20000 м    4/0 верхняя 
[Ci fib]
+19.6 +1.1 29 +20  1021.7  -1.6  754  283  +9.1         
09 24.04.17 050 (СВ) 20000 м    ясно 
+24.8 +3.8 26 +25  1020.1  -1.5  753  278           
12 24.04.17 090 (В) 20000 м    ясно 
+27.6 +10.2 34 +29  1018.3  -1.9  752  273           
15 24.04.17 тихо ()   н/о    ясно 
+21.8 +6.8 38 +22  1017.2  -1.2  751  279    +26.8       
18 24.04.17 050 (СВ) н/о    ясно 
+15.1 +7 58 +16  1017.6  0.1  751  286    +26.8       
21 24.04.17 070 (В) н/о    ясно 
+14 +6.5 61 +15  1016.8  -0.8  750  287           
00 25.04.17 110 (В) н/о    ясно 
+12 +7.4 73 +13  1016.5  -0.4  750  288           
03 25.04.17 110 (В) 20000 м    3/0 верхняя 
[Ci fib]
+16.6 +8.6 59 +18  1016.9  0.6  750  284           
06 25.04.17 110 (В) 11  20000 м    4/0 верхняя 
[Ci fib]
+24.7 +7.3 33 +25  1015.3  -1.2  750  276  +11.5         
09 25.04.17 140 (ЮВ) 20000 м    4/0 верхняя 
[Ci fib]
+29.4 +7.1 25 +29  1013.4  -1.6  748  271           
12 25.04.17 110 (В) 20000 м    6/0 верхняя 
[Ci fib]
+31.2 +8.6 25 +31  1012.4  -0.9  748  269           
15 25.04.17 тихо ()   н/о    8/0 средняя, верхняя 
[Ac trans|Ci fib]
+27 +9 32 +27  1013.1  0.5  748  273    +32       
18 25.04.17 070 (В) н/о    3/0 верхняя 
[Ci fib]
+18.6 +7.7 49 +20  1014.3  0.7  749  281    +32       
21 25.04.17 070 (В) н/о    ясно 
+17.1 +8.2 56 +19  1015  0.6  749  283           
00 26.04.17 070 (В) н/о    ясно 
+10.7 +6.3 74 +12  1015.3  0.3  749  289           
03 26.04.17 270 (З) 20000 м    4/0 верхняя 
[Ci fib]
+18.8 +8.4 51 +20  1015.5  0.3  749  281           
06 26.04.17 320 (СЗ) 20000 м    ясно 
+26.6 +9.7 35 +27  1015.8  0.7  750  274  +14.6         
09 26.04.17 320 (СЗ) 20000 м    ясно 
+28.6 +9.3 30 +29  1016  0.4  750  272           
Время (UTC), дата Ветер
(°,м/с) 
Видим.   Явления Облачность Т
(°С)
Тd
(°С)
f(%) Тe
(°С)
Pmin
(гПа)
dP
(гПа)
Po
(мм)
O2
(г/м3)
Тmin Tmax R s Состояние
почвы

Для получения пояснительной информации подведите курсор к названию столбца.

ПОГОДА в Злихе - архив

Всё, что Вы хотите узнать о погоде в Злихе - удобно и подробно!

Выберите нужную дату (начиная с 1 января 2015* года) и нажмите кнопку "Найти".
Будут отображены архивные сводки погоды по пункту Злиха, начиная с указанной даты.


Отображать данные в формате CSV (для использования в таблицах Excel)


Внимание! Наш архив погоды предназначен исключительно для личного некоммерческого использования в познавательных целях. Если Вам необходимы официальные справки о состоянии погоды (для производственных, юридических, коммерческих и т.п. целей), обращайтесь в органы Росгидромета.

*Примечание: данная дата относится к архиву по метеостанциям СССР (Россия, СНГ, Балтия).
Архив по метеостанциям Зарубежной Европы и Азии (кроме Китая) хранится 10 дней, по другим регионам земного шара (Китай, Африка, Америка, Австралия, Океания) - 1 день.

Злиха - район местоположения метеостанции


Название, широта, долгота, высота метеостанции:
Злиха 45.2°ш. 67.1°д. 138 м над ур. моря [Казахстан]

Дополнительная информация

В oтличие oт бoльшинства пoгoдных сайтoв мы публикуем пoдрoбную метеoинфoрмацию в детальнoм прoфессиoнальнoм фoрмате.

Характеристики температуры и влажнoсти вoздуха измеряются на высoте 2 м в тени вдали oт зданий и деревьев.
Скoрoсть ветра измеряется на высoте 10 м (на урoвне рoста челoвека скoрoсть ветра ниже в 1.5-2 раза). Если метеoстанция нахoдится в гoрoде или в лесу, тo скoрoсть ветра занижена на 2-4 м/с пo сравнению с oткрытым местoм. Скoрoсть ветра над акватoриями крупных рек и oзёр, а также на вершинах хoлмoв на 2-5 м/с выше, чем в oбычных услoвиях.
Атмoсфернoе давление в разных тoчках местнoсти мoжет значительнo oтличаться oт давления на метеoстанции, в зависимoсти oт услoвий рельефа (при пoдъёме на 10 м давление пoнижается примернo на 1 мм рт.ст.).